Location: LDNL
(36.4545°S, 141.6685°E)
Time: 11:43:30
(UTC+10:00)

Tiros 1 despin weight - Pass Details

Date: 17 August 2022
Orbit: 590 x 639 km, 48.2° (Epoch: 23 September)

Event Time Altitude Azimuth Distance (km) Brightness Sun altitude
Rises 05:51:36 0° 243° (WSW) 2,958 - -17.2°
Reaches altitude 10° 05:54:08 10° 253° (WSW) 2,046 - -16.6°
Exits shadow 05:56:58 27° 284° (WNW) 1,252 ? -16.1°
Maximum altitude 05:58:19 31° 315° (NW) 1,122 ? -15.8°
Drops below altitude 10° 06:02:26 10° 17° (NNE) 2,025 ? -15.0°
Sets 06:04:56 0° 27° (NNE) 2,923 ? -14.5°
